Dewpoint
53 53 53 56 56 57 61 61 60 60 59 59 59 58 58 58 58 58 57 57 57 57 57 57 57 57 52 47 45 48 62 59 44 43 40 39 37 35 33 32 32 30 28 27 27 24 21
53 52 54 55 56 56 57 60 60 59 59 59 58 58 57 57 57 57 57 57 56 56 56 57 57 58 52 41 41 45 45 43 41 41 40 39 36 33 32 32 32 31 31 29 28 29 27
51 53 54 54 54 57 57 57 59 59 59 59 58 58 57 57 57 57 57 56 56 55 56 57 58 54 49 37 38 43 42 40 40 39 37 35 34 32 33 31 34 32 32 32 29 28 28
51 53 53 54 54 54 56 56 57 59 59 58 58 57 57 56 56 56 56 55 55 55 56 57 58 53 48 40 41 39 41 39 38 37 37 35 37 35 35 34 32 31 31 30 31 29 28
51 52 53 53 54 54 53 55 56 58 59 58 58 57 56 56 55 55 55 55 55 56 57 56 52 51 46 47 40 38 36 38 37 37 37 35 39 36 36 34 32 32 28 29 30 30 27
51 52 52 52 53 54 54 53 55 56 58 58 58 57 56 56 55 55 54 55 54 55 50 48 48 40 39 33 39 39 35 38 39 39 37 37 37 37 37 34 29 30 29 28 28 29 25
48 50 52 52 52 53 52 54 53 55 57 58 57 57 56 56 55 55 54 50 42 47 46 42 41 36 28 36 42 38 38 38 39 36 33 34 32 32 35 36 34 31 30 29 29 31 28
48 49 51 52 52 51 51 52 54 53 56 57 57 57 56 56 56 56 54 48 42 45 42 43 40 36 37 35 33 39 37 34 35 33 32 32 31 33 35 35 35 34 32 31 32 31 29
49 49 48 50 51 51 51 52 53 54 54 56 57 56 56 55 56 55 52 47 46 47 43 37 34 32 37 34 29 32 35 32 34 34 33 31 30 32 33 33 32 31 32 32 32 31 30
49 49 49 50 51 50 51 51 52 53 54 55 56 56 55 54 53 52 50 49 49 49 39 30 26 27 26 26 25 25 31 28 33 32 33 30 27 28 31 32 31 30 33 33 31 30 27
48 49 49 50 50 50 50 51 51 52 52 54 56 55 54 54 50 48 45 48 48 51 27 27 23 29 26 24 29 30 27 26 26 31 31 30 32 32 34 32 32 31 34 32 32 30 28
47 47 48 49 49 49 50 50 51 51 51 52 54 55 54 54 52 52 46 47 51 43 30 24 36 33 29 26 30 36 31 30 29 29 28 28 32 31 32 33 32 33 32 30 31 29 26
47 47 46 48 48 48 49 50 50 50 50 51 52 55 55 54 48 48 54 47 38 34 23 22 34 34 34 32 32 32 33 27 30 29 28 29 29 28 29 29 33 31 30 28 27 27 27
46 47 47 47 47 47 48 48 48 50 50 50 51 54 55 53 51 48 53 45 31 26 22 19 30 32 33 35 34 32 33 31 32 29 25 25 27 26 30 28 30 31 30 30 26 26 27
46 46 47 47 47 47 47 48 48 48 49 49 51 54 55 53 52 55 49 36 28 23 23 23 22 29 30 32 34 32 31 32 34 34 28 27 26 27 28 28 28 28 30 31 30 31 28
45 46 46 46 46 46 46 46 47 47 48 49 48 52 52 53 55 53 45 36 30 27 23 22 19 24 28 29 30 29 30 30 29 32 31 31 27 27 29 28 28 27 28 25 29 26 25
45 45 46 45 46 46 45 46 46 47 48 50 47 48 53 53 56 48 39 36 33 30 27 27 24 24 25 28 30 30 31 30 30 30 30 29 30 29 30 29 25 26 25 27 28 28 25
45 45 45 45 45 46 45 46 46 47 47 48 46 43 54 54 44 44 39 37 36 33 32 28 27 26 25 27 29 31 31 31 33 31 29 33 34 29 27 29 28 27 27 29 27 26 30
46 46 46 46 46 45 45 45 45 46 46 47 43 46 54 52 38 40 39 39 37 33 31 29 29 30 29 28 25 31 33 34 35 32 33 33 31 27 27 27 27 25 27 28 30 31 27
45 45 46 46 46 46 45 45 45 46 46 45 46 38 48 48 41 38 38 38 37 37 34 33 30 30 29 28 32 32 30 41 38 38 43 39 35 30 25 24 26 24 24 23 25 27 27
46 46 45 45 46 46 45 45 45 46 46 45 47 41 45 40 40 37 38 37 36 35 36 34 32 32 30 29 31 30 33 40 41 43 41 37 32 35 33 31 28 26 23 22 21 23 24
44 44 45 46 45 46 45 44 45 46 45 43 42 43 47 42 39 37 36 34 36 35 33 34 33 33 29 30 32 28 32 36 36 42 39 40 32 33 29 30 29 27 26 24 25 25 26
41 44 45 45 45 45 44 44 45 45 45 43 49 49 46 41 38 38 36 35 35 36 36 34 34 35 35 31 34 33 37 40 41 40 38 35 35 34 28 31 34 30 30 28 28 29 29
41 41 44 45 46 46 44 44 45 44 44 44 50 48 45 40 39 37 36 37 36 36 34 36 37 34 39 42 41 43 41 40 40 40 39 37 35 34 29 34 28 31 32 33 37 37 36
40 42 43 45 45 44 43 43 43 44 46 47 51 48 45 39 40 38 38 37 38 37 38 36 37 39 41 41 39 35 36 35 33 37 38 38 39 34 29 30 31 32 32 32 32 31 35
40 42 43 44 45 43 43 43 45 48 48 52 51 52 48 41 40 41 39 39 38 38 39 38 43 43 43 42 37 34 32 32 32 32 33 37 39 38 34 30 28 29 34 36 39 35 39
42 41 42 45 43 42 43 44 50 49 50 53 49 49 46 37 39 42 41 40 41 40 39 40 42 45 45 39 36 34 32 34 30 30 33 32 36 35 34 34 33 36 36 37 33 35 43
43 42 42 45 43 42 44 45 49 51 51 49 44 46 44 35 38 41 41 43 44 42 39 41 42 41 40 38 37 35 34 35 34 32 31 34 34 35 36 34 32 40 38 35 41 45 45
43 42 42 45 44 43 43 44 46 48 50 48 41 45 44 38 37 42 43 44 43 43 42 38 40 40 39 40 41 39 34 35 36 33 36 35 37 35 37 37 41 43 45 45 44 43 43
Lifted_Index
8 6 4 3 3 3 4 4 4 5 5 5 5 6 7 8 8 9 9 9 9 10 10 10 10 9 8 5 4 4 5 6 6 5 5 4 4 4 3 3 3 3 3 3 3 4 4
9 8 6 4 3 3 3 4 4 4 5 5 5 5 6 7 8 8 9 9 9 10 10 10 10 9 7 6 5 4 5 5 5 5 4 4 4 4 4 3 3 3 3 3 3 3 3
10 9 8 7 5 4 3 3 3 4 4 5 5 5 5 6 7 8 9 9 9 9 10 10 10 8 7 6 6 5 4 5 5 5 4 5 5 5 4 4 3 3 3 3 3 3 3
10 10 9 9 8 6 4 3 3 3 4 4 5 5 5 6 7 8 8 9 9 9 9 10 9 8 7 6 6 5 4 4 4 4 5 5 5 5 4 4 4 3 3 2 2 3 3
10 10 9 9 9 8 6 5 3 3 3 4 4 4 4 5 6 7 8 8 8 9 9 9 8 7 6 5 5 5 4 4 4 4 4 5 4 4 4 3 3 3 2 2 2 2 2
10 10 9 9 9 9 8 6 4 3 3 3 4 4 4 5 5 6 7 8 8 7 7 7 7 7 6 5 5 4 4 4 4 4 4 4 4 3 3 2 2 2 2 2 1 1 1
10 10 9 9 9 9 9 8 6 4 3 2 3 4 4 5 5 6 7 7 6 6 6 6 6 6 6 5 4 4 4 4 4 4 4 4 4 3 2 2 2 2 2 2 1 1 1
11 10 10 9 9 10 10 9 8 5 3 2 2 3 4 5 5 6 6 6 5 5 5 5 5 6 6 5 5 4 4 4 4 4 4 4 3 2 2 2 1 1 1 1 1 1 1
11 11 10 10 9 10 10 10 9 7 5 3 2 3 4 5 5 6 6 6 5 5 5 5 5 6 6 5 5 5 5 5 5 4 4 4 3 2 2 2 1 1 1 1 1 1 1
11 11 10 10 9 9 10 10 10 9 7 5 3 3 3 5 5 6 5 5 5 4 4 5 6 6 6 6 6 6 5 5 5 4 4 4 3 3 2 2 2 2 1 1 1 1 1
10 10 10 10 10 10 10 10 10 10 8 6 4 3 3 5 5 5 5 4 3 3 3 4 5 6 6 6 6 5 6 6 5 5 4 4 3 3 2 2 2 2 1 1 2 1 1
9 9 10 10 10 10 10 10 10 10 9 8 6 4 4 5 5 4 4 3 2 2 3 4 4 5 5 5 5 5 5 5 5 4 4 3 3 3 2 2 2 2 1 1 1 1 1
6 7 8 9 10 10 10 10 10 11 10 9 7 4 4 5 5 3 2 2 2 2 3 3 4 4 4 4 4 4 4 4 4 4 3 3 3 2 2 2 2 2 1 1 1 1 1
3 4 5 7 9 10 10 10 11 11 11 10 7 5 4 4 3 2 1 2 2 3 3 3 3 3 3 3 4 4 3 3 4 3 3 2 2 2 2 2 2 2 1 1 0 1 1
1 2 3 5 7 9 10 11 11 11 11 10 8 5 4 3 2 1 1 2 3 4 4 3 3 2 3 3 3 3 3 3 3 3 3 2 2 2 2 2 2 2 1 1 1 1 1
1 1 1 2 5 8 10 11 11 11 11 10 8 5 4 3 2 0 1 3 4 5 4 3 3 2 2 2 3 3 3 3 3 3 3 3 2 2 2 1 1 2 2 1 1 1 1
0 0 1 1 3 5 9 11 11 11 11 10 7 5 3 3 2 1 2 4 6 5 4 3 3 3 2 2 2 3 3 3 3 3 3 3 2 2 1 1 1 1 1 1 1 1 1
-0 -0 -0 0 1 4 7 10 11 12 11 10 7 4 3 3 3 2 3 5 6 5 4 3 3 3 3 2 2 2 3 3 3 2 2 2 2 1 1 1 1 1 1 1 1 1 1
-0 -1 -1 -0 0 2 6 9 11 12 11 9 6 4 3 3 3 4 4 5 5 5 4 4 3 3 3 3 3 2 2 2 2 2 2 2 2 1 1 1 2 1 1 1 1 1 1
-0 -0 -1 -1 -0 1 5 9 11 11 11 8 5 3 3 3 4 4 5 5 5 5 4 3 3 3 3 3 3 2 2 1 1 2 2 2 2 1 1 1 2 2 2 2 2 2 2
1 0 0 -0 0 1 4 8 11 11 10 8 4 2 2 3 4 5 5 5 5 5 5 4 3 3 3 3 3 3 2 1 1 1 1 1 1 1 2 2 2 2 3 3 3 2 2
3 2 2 1 1 2 4 7 10 11 10 7 3 2 2 3 4 5 6 6 6 5 5 4 4 3 3 3 3 2 2 1 0 0 1 1 1 1 2 2 2 3 3 4 3 3 3
5 4 4 3 3 3 5 8 10 11 9 6 3 2 2 3 4 5 6 6 6 5 5 4 4 3 2 2 2 2 1 0 0 0 0 0 0 1 1 2 2 3 4 4 3 3 2
6 6 5 5 4 4 5 8 10 10 9 6 3 2 2 3 3 4 5 5 5 5 4 4 3 2 1 1 1 0 0 1 1 1 0 0 0 1 1 1 2 4 4 3 3 3 2
7 7 7 6 5 6 6 8 9 9 8 5 3 3 2 2 3 4 4 5 4 4 3 3 2 1 0 -0 -0 -0 0 1 2 2 1 1 0 0 1 1 2 4 4 3 3 2 2
8 8 8 7 6 7 7 7 7 7 6 4 3 3 2 2 3 3 4 4 4 3 3 3 2 0 -0 -0 -0 0 1 2 2 2 2 1 0 0 1 1 2 4 3 2 2 2 1
9 9 8 8 7 7 8 7 5 5 4 3 3 3 2 3 3 3 3 4 4 3 3 3 1 0 0 0 0 1 1 2 2 3 2 2 1 1 1 1 3 3 3 2 2 1 1
9 9 9 8 8 8 8 7 5 4 3 3 3 3 3 3 3 3 3 3 3 3 3 3 2 1 1 0 1 1 2 2 3 3 2 2 2 1 1 1 2 2 2 2 2 1 1
9 9 9 8 8 9 9 8 7 4 3 3 3 3 3 3 4 4 3 3 3 3 3 2 2 1 1 1 1 1 2 2 2 3 2 2 2 2 1 2 2 2 1 1 1 1 1